Regional Weather Roundup
Issued by NWS

Home | Current Version | Previous Version | Text Only | Print | Product List | Glossary Off
Versions: 1 2 3 4 5 6 7 8 9 10 11 12 13 14 15 16 17 18 19 20 21 22 23 24 25 26 27 28 29 30 31 32 33 34 35 36 37 38 39 40 41 42 43 44 45 46 47 48 49 50

652
ASUS45 KTFX 270310
RWRMT
MONTANA REGIONAL WEATHER ROUNDUP
NATIONAL WEATHER SERVICE GREAT FALLS MT
900 PM MDT MON SEP 26 2016

NOTE: "FAIR" INDICATES FEW OR NO CLOUDS BELOW 12000 FEET WITH NO
SIGNIFICANT WEATHER AND/OR OBSTRUCTIONS TO VISIBILITY.

MTZ001>007-043-270400-
WEST OF THE DIVIDE

CITY           SKY/WX    TMP DP  RH WIND       PRES   REMARKS
KALISPELL      CLEAR     53  46  77 N3        30.12F
MISSOULA       CLEAR     60  47  61 CALM      30.15S
BUTTE          CLEAR     56  40  55 S5        30.29R
MULLAN PASS    CLEAR     63  39  41 CALM      30.27F
ANACONDA         N/A     55  39  54 SW6       30.25F
DEER LODGE       N/A     52  41  66 CALM      30.26S
EUREKA           N/A     68  46  45 SE9       30.08S
HAMILTON         N/A     59  52  77 S3        30.17S
LIBBY            N/A     59  52  77 CALM      30.07F
RONAN            N/A     52  44  74 W2        30.16F
$$

MTZ008-052>055-270400-
SOUTHWEST MONTANA

CITY           SKY/WX    TMP DP  RH WIND       PRES   REMARKS
BOZEMAN        CLEAR     56  41  57 S12       30.23R
DILLON         CLEAR     59  44  57 CALM      30.26R
W YELLOWSTONE  CLOUDY    55  39  54 CALM      30.39S
ENNIS          CLEAR     52  37  58 CALM      30.32S
THREE FORKS      N/A     54  54 100 CALM      30.19S
$$

MTZ009-010-012-014-046-048-049-054-270400-
EAST SLOPES AND CENTRAL MONTANA

CITY           SKY/WX    TMP DP  RH WIND       PRES   REMARKS
CUT BANK       CLEAR     63  40  42 W14       30.07F
GREAT FALLS    CLEAR     64  40  41 SW14      30.10S
MALMSTROM AFB  CLEAR     61  42  49 SW15      30.09F
HELENA         CLEAR     63  41  44 CALM      30.17S
CHOTEAU          N/A     63  39  42 SW7       30.13S
CONRAD           N/A     53  43  69 SW6       30.10F
$$

MTZ011-013-016-021-045-047-050-051-270400-
NORTH CENTRAL MONTANA

CITY           SKY/WX    TMP DP  RH WIND       PRES   REMARKS
HAVRE          CLEAR     56  46  69 W5        30.01F
LEWISTOWN      CLEAR     55  45  68 S7        30.14F
N BAR RANCH      N/A     52  46  82 W7        30.18F
CHINOOK          N/A     57  48  72 E5        30.01F
$$

MTZ017>020-022>027-061-062-270400-
NORTHEAST MONTANA

CITY           SKY/WX    TMP DP  RH WIND       PRES   REMARKS
GLASGOW        CLEAR     54  44  69 SE8       30.08S
JORDAN           N/A     52  47  83 CALM      30.10S
SIDNEY         CLOUDY    55  42  61 NW13      30.09S
WOLF POINT     PTCLDY    51  45  79 CALM      30.08F
POPLAR           N/A     57  43  58 N3        30.09S
SCOBEY           N/A     48  34  58 CALM      30.07
$$

MTZ028>42-056>058-270400-
SOUTHCENTRAL AND SOUTHEAST MONTANA

CITY           SKY/WX    TMP DP  RH WIND       PRES   REMARKS
BAKER          CLEAR     55  42  61 CALM      30.15F
BILLINGS       CLEAR     65  45  48 SW16      30.16F
LIVINGSTON     CLOUDY    56  38  50 NW12      30.22R
MILES CITY     CLEAR     60  46  59 S7        30.12F
BIG TIMBER     CLEAR     63  36  36 SW15      30.22S
FORSYTH          N/A     59  46  63 SE3       30.11F
LAUREL           N/A     62  44  51 SW7       30.14F
ROUNDUP          N/A     64  45  50 S8        30.04F
$$

REGIONAL REPORTS...DAKOTAS

CITY           SKY/WX    TMP DP  RH WIND       PRES   REMARKS
WILLISTON      CLEAR     49  41  74 CALM      30.08F
MINOT          CLEAR     54  38  54 W8        30.05S
DICKINSON      CLEAR     49  38  65 W5        30.10F
CROSBY           N/A     45  41  87 W5        30.09S
WATFORD CITY     N/A     48  43  81 SW3       30.09S
BISMARCK       CLEAR     52  38  58 W3        30.08S
GRAND FORKS    CLEAR     45  38  76 NW7       29.94R
FARGO          CLEAR     54  31  41 W13       29.94F
BUFFALO SD       N/A     53  42  66 W6        30.11S
RAPID CITY     CLEAR     49  40  71 W7        30.20S
$$

REGIONAL REPORTS...WYOMING/IDAHO/WASHINGTON

CITY           SKY/WX    TMP DP  RH WIND       PRES   REMARKS
GILLETTE       CLEAR     49  46  90 SW7       30.24F
SHERIDAN       CLEAR     52  47  83 S3        30.21F
BUFFALO WY     CLOUDY    57  44  62 SW6       30.28F
CODY           CLEAR     55  46  71 SE5       30.29F
YELLOWSTONE LA   N/A     41  38  89 CALM      30.47S
IDAHO FALLS    CLOUDY    55  46  71 CALM      30.30R
SALMON         CLEAR     54  45  71 E3        30.20R
BOISE          CLEAR     72  40  31 CALM      30.14R
SPOKANE        PTCLDY    71  45  39 CALM      30.04S
$$

REGIONAL REPORTS...ALBERTA

CITY           SKY/WX    TMP DP  RH WIND       PRES   REMARKS
EDMONTON       PTCLDY    55  41  58 S6        29.80F
CALGARY        MOCLDY    66  36  32 SW7       29.93F
LETHBRIDGE     PTCLDY    61  43  51 SW13G21   29.99F
MEDICINE HAT   CLEAR     55  46  71 W5        29.94F
$$

REGIONAL REPORTS...SASKATCHEWAN

CITY           SKY/WX    TMP DP  RH WIND       PRES   REMARKS
SWIFT CURRENT  CLEAR     52  41  66 S10       30.01F
REGINA         CLEAR     52  39  62 SE2       30.06S
SASKATOON      CLEAR     52  39  62 SE5       30.02F
$$




USA.gov is the U.S. government's official web portal to all federal, state and local government web resources and services.